[[{"header":{"parameterUnit":"m.s-1","parameterCategory":2,"la1":30.2991,"la2":30.254,"lo1":-89.0895,"lo2":-89.0444,"dy":0.0017,"dx":0.0017,"nx":28,"ny":28,"refTime":"2023-08-28T03:00:00:Z","depth":"0","parameterNumber":2,"parameterNumberName":"U-component_of_CURRENTS"},"data":[0,0,0,0,0,0,0,0,0,0,0,0,0,0,0,0,0,0,0,0,0,0,0,0,0,0,0,0,0,0,0,0,0,0,0,0,0,0,0,0,0,0,0,0,0,0,0,0,0,0,0,0,0,0,0,0,0,0,-0.2265,-0.2268,0,-0.2519,-0.2521,-0.2523,-0.2559,-0.2558,-0.2556,-0.2555,-0.2497,-0.2497,-0.2497,0,0,0,0,0,0,0,0,0,0,0,0,0,-0.2004,-0.2007,-0.2264,-0.2269,-0.2273,-0.2519,-0.2521,-0.2524,-0.2559,-0.2557,-0.2556,-0.2554,-0.2497,-0.2497,-0.2497,0,0,0,0,0,0,0,0,0,0,0,0,0,-0.2163,-0.2007,-0.2264,-0.2328,-0.2337,-0.2518,-0.2521,-0.2524,-0.256,-0.2557,-0.2555,-0.2553,-0.2497,-0.2497,-0.2497,-0.2536,0,0,-0.2495,-0.2495,0,0,0,0,0,0,0,0,-0.2154,-0.2171,-0.2314,-0.2324,-0.2335,-0.2515,-0.241,-0.2517,-0.256,-0.2464,-0.2555,-0.2552,-0.2482,-0.2483,-0.2525,-0.2533,-0.2531,-0.2495,-0.2495,-0.2495,-0.2495,0,0,0,0,0,0,0,-0.2142,-0.2162,-0.2354,-0.2319,-0.2332,-0.2412,-0.2429,-0.2431,-0.2467,-0.2472,-0.2478,-0.2524,-0.2484,-0.2526,-0.2523,-0.253,-0.2495,-0.2495,-0.2495,-0.2495,-0.2539,-0.254,0,0,0,0,0,0,-0.2125,-0.215,-0.2347,-0.2363,-0.2249,-0.2418,-0.2437,-0.245,-0.2474,-0.2482,-0.2526,-0.2525,-0.2527,-0.2524,-0.2521,-0.255,-0.2495,-0.2495,-0.2494,-0.2538,-0.2539,-0.2541,0,0,0,0,0,0,-0.2118,-0.2139,-0.2336,-0.2273,-0.2305,-0.2425,-0.2439,-0.2457,-0.2506,-0.2521,-0.2519,-0.2559,-0.2525,-0.2521,-0.2531,-0.2547,-0.2495,-0.2494,-0.2536,-0.2538,-0.254,-0.2618,0,0,0,0,0,0,-0.2109,-0.2133,-0.2139,-0.2271,-0.2308,-0.246,-0.2443,-0.2463,-0.2542,-0.2543,-0.2548,-0.2542,-0.2523,-0.2532,-0.253,-0.2546,-0.2494,-0.2534,-0.2537,-0.2539,-0.2613,-0.2622,-0.263,0,0,0,0,0,-0.2098,-0.2122,-0.2136,-0.2162,-0.2309,-0.2464,-0.249,-0.2561,-0.2546,-0.259,-0.2578,-0.2542,-0.2546,-0.2534,-0.2531,-0.2547,-0.2533,-0.2536,-0.2539,-0.261,-0.262,-0.2629,0,0,0,0,0,0,-0.2027,-0.2133,-0.2151,-0.2207,-0.2332,-0.2473,-0.2518,-0.2572,-0.2608,-0.2579,-0.2568,-0.2563,-0.258,-0.2557,-0.2542,-0.2568,-0.253,-0.2533,-0.2585,-0.2595,-0.2603,-0.2555,-0.2494,0,0,0,0,0,-0.2012,-0.2041,-0.218,-0.2229,-0.2276,-0.2394,-0.2462,-0.2521,-0.2582,-0.2598,-0.2606,-0.2593,-0.2597,-0.2588,-0.2592,-0.2608,-0.2541,-0.2614,-0.2622,-0.2629,-0.259,-0.2498,-0.2493,-0.2551,-0.2551,-0.2551,0,0,-0.2005,-0.2065,-0.2087,-0.2216,-0.2292,-0.2364,-0.2425,-0.2533,-0.2582,-0.2578,-0.2609,-0.2629,-0.2611,-0.2634,-0.2637,-0.261,-0.2593,-0.2633,-0.2639,-0.2595,-0.2501,-0.2494,-0.2489,-0.2553,-0.2553,-0.2553,0,0,-0.2009,-0.2046,-0.207,-0.2154,-0.2286,-0.2362,-0.2393,-0.2535,-0.2577,-0.2644,-0.264,-0.2672,-0.2683,-0.2687,-0.2681,-0.2734,-0.2647,-0.2736,-0.2727,-0.2642,-0.2634,-0.2627,-0.2592,-0.258,-0.2729,-0.273,-0.273,0,-0.1993,-0.2034,-0.2116,-0.216,-0.2217,-0.2346,-0.2394,-0.2474,-0.2606,-0.2611,-0.2646,-0.2662,-0.2702,-0.2678,-0.2734,-0.275,-0.2685,-0.2695,-0.2648,-0.2639,-0.263,-0.2594,-0.2581,-0.2734,-0.2733,-0.2733,-0.2733,0,-0.2019,-0.2047,-0.2072,-0.2137,-0.2213,-0.2291,-0.2401,-0.2459,-0.2519,-0.2584,-0.2608,-0.2675,-0.2664,-0.2719,-0.276,-0.2726,-0.2701,-0.2677,-0.2615,-0.2628,-0.2592,-0.2576,-0.274,-0.2738,-0.2737,-0.2736,0,0,-0.1983,-0.2069,-0.2071,-0.209,-0.2201,-0.2276,-0.2314,-0.2398,-0.2408,-0.2507,-0.2504,-0.2596,-0.2624,-0.2621,-0.2675,-0.2654,-0.2636,-0.2653,-0.2647,-0.2604,-0.2454,-0.2408,-0.2386,-0.2578,-0.2575,-0.2572,-0.2473,0,-0.1977,-0.2029,-0.2073,-0.212,-0.2156,-0.223,-0.2265,-0.2337,-0.2403,-0.2438,-0.2479,-0.2515,-0.2583,-0.2613,-0.2592,-0.2637,-0.2586,-0.2666,-0.2456,-0.2451,-0.2395,-0.2363,-0.2277,-0.2175,-0.2457,-0.2455,-0.2453,0,-0.1975,-0.201,-0.2044,-0.2097,-0.2116,-0.2152,-0.2189,-0.2249,-0.2292,-0.2336,-0.2325,-0.2375,-0.2402,-0.2461,-0.2413,-0.2448,-0.2441,-0.2458,-0.2452,-0.2351,-0.2371,-0.2197,-0.2135,-0.2122,-0.2428,-0.243,-0.2431,0,-0.1919,-0.1982,-0.2001,-0.2025,-0.2108,-0.2105,-0.2146,-0.2195,-0.2231,-0.226,-0.2276,-0.226,-0.2293,-0.2238,-0.2322,-0.2344,-0.2253,-0.2274,-0.2194,-0.2194,-0.2046,-0.2037,-0.192,-0.2158,-0.2158,-0.2159,-0.2159,0,-0.1896,-0.1907,-0.1973,-0.1988,-0.1995,-0.2063,-0.2071,-0.2105,-0.2149,-0.2167,-0.2214,-0.2218,-0.2234,-0.2215,-0.2241,-0.2173,-0.2156,-0.2159,-0.2137,-0.2082,-0.2077,-0.1999,-0.2039,-0.2155,-0.2156,-0.2157,-0.2157,0,-0.1826,-0.1879,-0.1898,-0.1959,-0.1971,-0.1973,-0.2028,-0.2043,-0.2092,-0.2108,-0.2116,-0.2168,-0.2138,-0.2138,-0.21,-0.2078,-0.1989,-0.1995,-0.1967,-0.1941,-0.1845,-0.1894,-0.1732,-0.1681,-0.1863,-0.1861,-0.1859,0,-0.1793,-0.1798,-0.1849,-0.1858,-0.1879,-0.19,-0.1918,-0.1991,-0.2016,-0.2078,-0.208,-0.2073,-0.2046,-0.197,-0.1928,-0.1854,-0.1886,-0.1739,-0.1759,-0.1789,-0.1828,-0.1878,-0.1852,-0.163,-0.1626,-0.1623,-0.1621,0,-0.1711,-0.1728,-0.1745,-0.1761,-0.1779,-0.1796,-0.1831,-0.1843,-0.193,-0.1945,-0.1951,-0.193,-0.1881,-0.1777,-0.1704,-0.1664,-0.1697,-0.1675,-0.1675,-0.159,-0.166,-0.1618,-0.1804,-0.1595,-0.1598,-0.1599,-0.1601,-0.1602,-0.1627,-0.1616,-0.1639,-0.164,-0.1663,-0.1661,-0.1634,-0.1694,-0.1696,-0.1698,-0.1772,-0.1716,-0.1684,-0.1562,-0.1514,-0.1413,-0.1491,-0.1379,-0.1429,-0.1473,-0.1425,-0.1581,-0.1368,-0.1369,-0.137,-0.1371,-0.1372,0,-0.1515,-0.1517,-0.152,-0.1517,-0.1488,-0.1537,-0.155,-0.1509,-0.1469,-0.1518,-0.1495,-0.1466,-0.1365,-0.1348,-0.1269,-0.1201,-0.1184,-0.1181,-0.1224,-0.1201,-0.1282,-0.1273,-0.1064,-0.1064,-0.1064,-0.1064,-0.1064,-0.1064,-0.146,-0.142,-0.1422,-0.1327,-0.1322,-0.1237,-0.121,-0.1179,-0.1185,-0.1137,-0.1147,-0.1154,-0.1183,-0.1302,-0.1203,-0.1131,-0.1119,-0.1078,-0.1116,-0.1193,-0.1216,-0.1238,-0.1235,-0.1021,-0.1022,-0.0971,-0.0971,-0.0971]},{"header":{"parameterUnit":"m.s-1","parameterCategory":2,"la1":30.2991,"la2":30.254,"lo1":-89.0895,"lo2":-89.0444,"dy":0.0017,"dx":0.0017,"nx":28,"ny":28,"refTime":"2023-08-28T03:00:00:Z","depth":"0","parameterNumber":3,"parameterNumberName":"V-component_of_CURRENTS"},"data":[0,0,0,0,0,0,0,0,0,0,0,0,0,0,0,0,0,0,0,0,0,0,0,0,0,0,0,0,0,0,0,0,0,0,0,0,0,0,0,0,0,0,0,0,0,0,0,0,0,0,0,0,0,0,0,0,0,0,-0.0192,-0.0191,0,-0.0021,-0.0019,-0.0017,0.0071,0.0071,0.0071,0.0071,0.0153,0.0155,0.0157,0,0,0,0,0,0,0,0,0,0,0,0,0,-0.0252,-0.0253,-0.0193,-0.0191,-0.0189,-0.0021,-0.0019,-0.0016,0.0071,0.0071,0.0071,0.0071,0.0152,0.0155,0.0158,0,0,0,0,0,0,0,0,0,0,0,0,0,-0.0167,-0.0253,-0.0193,-0.0126,-0.0118,-0.0022,-0.0019,-0.0015,0.0071,0.0071,0.0071,0.0071,0.0151,0.0155,0.0158,0.0181,0,0,0.0168,0.017,0,0,0,0,0,0,0,0,-0.0172,-0.0165,-0.0138,-0.0131,-0.0122,0.0002,-0.001,0.0045,0.0072,0.0001,0.0071,0.0071,0.0093,0.0101,0.0138,0.0185,0.0188,0.0168,0.0171,0.0172,0.0173,0,0,0,0,0,0,0,-0.0179,-0.0171,-0.0123,-0.0136,-0.0126,-0.0039,-0.0028,0.0003,0.0045,0.0007,0.0014,0.003,0.0097,0.0134,0.014,0.019,0.0168,0.0171,0.0173,0.0175,0.0261,0.0261,0,0,0,0,0,0,-0.0213,-0.0178,-0.0128,-0.0118,-0.015,-0.0039,-0.0027,-0.0036,0.0047,0.006,0.003,0.0033,0.0129,0.0136,0.0143,0.0175,0.0172,0.0175,0.0177,0.026,0.0261,0.0261,0,0,0,0,0,0,-0.0216,-0.0212,-0.0135,-0.0143,-0.0128,-0.0039,-0.0049,-0.0033,0.0007,0.0065,0.0077,0.0052,0.0129,0.0138,0.0178,0.0179,0.0177,0.018,0.026,0.026,0.0261,0.0239,0,0,0,0,0,0,-0.0219,-0.0214,-0.0221,-0.0147,-0.0129,-0.008,-0.0048,-0.0029,0.0016,0.0022,0.0087,0.0095,0.0129,0.0172,0.0181,0.0183,0.0182,0.026,0.026,0.0261,0.0239,0.0239,0.0238,0,0,0,0,0,-0.0222,-0.0243,-0.0223,-0.0216,-0.0146,-0.0079,-0.0061,0.0004,0.0017,0.0038,0.0081,0.0094,0.0181,0.0176,0.0186,0.0189,0.0259,0.026,0.0261,0.024,0.0239,0.0238,0,0,0,0,0,0,-0.0268,-0.0234,-0.021,-0.0219,-0.0152,-0.0065,-0.0047,0.0,0.0056,0.0049,0.0105,0.0116,0.0153,0.0172,0.0165,0.0214,0.0219,0.0221,0.02,0.0199,0.0198,0.0151,0.0185,0,0,0,0,0,-0.0285,-0.0293,-0.0229,-0.0228,-0.0211,-0.0129,-0.0092,-0.0049,0.0007,0.0033,0.0085,0.0125,0.0165,0.0181,0.0222,0.0247,0.0252,0.0252,0.0252,0.0251,0.0219,0.0225,0.0221,0.0263,0.0263,0.0263,0,0,-0.0298,-0.0281,-0.0282,-0.0237,-0.0192,-0.0171,-0.0107,-0.0067,-0.004,0.0028,0.0071,0.0128,0.0173,0.0212,0.0227,0.0225,0.0252,0.0252,0.0251,0.0218,0.0225,0.022,0.0216,0.0263,0.0263,0.0263,0,0,-0.0334,-0.0324,-0.0342,-0.0303,-0.0246,-0.0198,-0.0193,-0.0108,-0.0066,-0.001,0.0044,0.0097,0.0162,0.0202,0.0226,0.0239,0.0253,0.0253,0.0206,0.0213,0.0208,0.0205,0.0246,0.0246,0.0246,0.0246,0.0246,0,-0.0349,-0.0367,-0.0326,-0.033,-0.0306,-0.0224,-0.0223,-0.0169,-0.0071,-0.0048,-0.0011,0.0095,0.0152,0.0183,0.0202,0.0236,0.0247,0.0208,0.0209,0.0206,0.0202,0.0245,0.0245,0.0245,0.0245,0.0245,0.0245,0,-0.0394,-0.0401,-0.041,-0.0398,-0.0364,-0.0349,-0.0283,-0.0241,-0.0184,-0.0122,-0.006,0.0034,0.0085,0.0129,0.0175,0.0184,0.0206,0.0214,0.0206,0.0196,0.0244,0.0244,0.0243,0.0244,0.0244,0.0244,0,0,-0.0445,-0.0444,-0.0445,-0.0448,-0.0402,-0.0379,-0.0358,-0.0305,-0.0292,-0.0195,-0.0168,-0.0064,-0.0012,0.0016,0.009,0.0113,0.0143,0.0147,0.0148,0.0179,0.0175,0.0231,0.0238,0.0144,0.0143,0.0142,0.0233,0,-0.0485,-0.0519,-0.0499,-0.0512,-0.0523,-0.0462,-0.0443,-0.0388,-0.0322,-0.0273,-0.0187,-0.0128,-0.0058,-0.0017,0.001,0.0116,0.0135,0.0118,0.0187,0.0189,0.0231,0.0236,0.0278,0.0364,0.0233,0.0233,0.0233,0,-0.0531,-0.0548,-0.0581,-0.0576,-0.0576,-0.0567,-0.0534,-0.0503,-0.0433,-0.0381,-0.033,-0.025,-0.0178,-0.0122,-0.0008,-0.0025,0.0054,0.013,0.0135,0.0181,0.0243,0.0346,0.037,0.0523,0.0234,0.0234,0.0234,0,-0.0585,-0.0601,-0.0632,-0.063,-0.0614,-0.0614,-0.0596,-0.0539,-0.0516,-0.0452,-0.0423,-0.0344,-0.0279,-0.0199,-0.0024,-0.0026,0.0103,0.012,0.0238,0.0245,0.0289,0.03,0.0451,0.0158,0.0158,0.0157,0.0157,0,-0.0635,-0.0657,-0.0661,-0.0678,-0.0707,-0.0672,-0.0681,-0.0647,-0.06,-0.0579,-0.0488,-0.044,-0.0301,-0.0192,-0.0065,0.0103,0.0066,0.0221,0.0259,0.029,0.0299,0.0439,0.0494,0.0161,0.016,0.0159,0.0159,0,-0.0684,-0.0689,-0.0724,-0.073,-0.0735,-0.0752,-0.0742,-0.0742,-0.0688,-0.0659,-0.0641,-0.0514,-0.0364,-0.0206,-0.0035,0.007,0.0317,0.0278,0.0327,0.0368,0.0604,0.0655,0.0798,0.0892,0.0407,0.0409,0.041,0,-0.071,-0.0737,-0.0771,-0.0798,-0.0803,-0.0823,-0.0835,-0.0794,-0.0784,-0.0689,-0.0674,-0.0529,-0.04,-0.0118,0.0088,0.0304,0.0409,0.0458,0.045,0.0618,0.0703,0.0735,0.0805,0.0525,0.0527,0.0529,0.0531,0,-0.0757,-0.0768,-0.0799,-0.0861,-0.0889,-0.0917,-0.0922,-0.0926,-0.0864,-0.0805,-0.0689,-0.0577,-0.0299,-0.002,0.0253,0.0379,0.0578,0.0502,0.0652,0.0779,0.0843,0.0953,0.0493,0.0547,0.0546,0.0544,0.0543,0.0543,-0.0782,-0.0819,-0.0863,-0.0915,-0.0954,-0.0986,-0.0992,-0.0965,-0.0923,-0.079,-0.0702,-0.0467,-0.0096,0.0306,0.0454,0.0781,0.0731,0.0875,0.092,0.0933,0.1027,0.0618,0.0724,0.0724,0.0723,0.0723,0.0722,0,-0.0811,-0.0854,-0.0914,-0.0973,-0.1015,-0.1021,-0.1029,-0.0992,-0.0912,-0.0745,-0.0592,-0.0131,0.024,0.0585,0.1011,0.119,0.123,0.1279,0.1335,0.1384,0.101,0.102,0.1223,0.1223,0.1223,0.1223,0.1222,0.1222,-0.0829,-0.0891,-0.0926,-0.1002,-0.1039,-0.1058,-0.1049,-0.0961,-0.0829,-0.0505,-0.0204,0.0037,0.0527,0.1155,0.155,0.1579,0.1751,0.1728,0.1819,0.1569,0.1534,0.1501,0.1526,0.1832,0.1833,0.2191,0.2195,0.2197]}],[{"header":{"parameterUnit":"m.s-1","parameterCategory":2,"la1":30.2991,"la2":30.254,"lo1":-89.0895,"lo2":-89.0444,"dy":0.0017,"dx":0.0017,"nx":28,"ny":28,"refTime":"2023-08-28T03:00:00:Z","depth":"2","parameterNumber":2,"parameterNumberName":"U-component_of_CURRENTS"},"data":[0,0,0,0,0,0,0,0,0,0,0,0,0,0,0,0,0,0,0,0,0,0,0,0,0,0,0,0,0,0,0,0,0,0,0,0,0,0,0,0,0,0,0,0,0,0,0,0,0,0,0,0,0,0,0,0,0,0,-0.197,-0.197,0,-0.1944,-0.1943,-0.1942,-0.1854,-0.1853,-0.1851,-0.185,-0.1928,-0.1932,-0.1935,0,0,0,0,0,0,0,0,0,0,0,0,0,-0.1878,-0.188,-0.197,-0.197,-0.1971,-0.1944,-0.1943,-0.1942,-0.1854,-0.1852,-0.1851,-0.1849,-0.1927,-0.1931,-0.1935,0,0,0,0,0,0,0,0,0,0,0,0,0,-0.1885,-0.1881,-0.197,-0.1929,-0.1926,-0.1945,-0.1943,-0.1942,-0.1854,-0.1852,-0.1851,-0.1849,-0.1926,-0.1931,-0.1936,-0.2005,0,0,-0.1951,-0.1953,0,0,0,0,0,0,0,0,-0.1885,-0.1887,-0.1935,-0.1932,-0.1928,-0.1907,-0.194,-0.1971,-0.1855,-0.1873,-0.185,-0.1848,-0.1938,-0.1941,-0.1928,-0.2008,-0.2012,-0.1951,-0.1954,-0.1956,-0.1958,0,0,0,0,0,0,0,-0.1884,-0.1888,-0.1952,-0.1936,-0.1932,-0.1891,-0.1889,-0.1944,-0.1912,-0.1872,-0.1867,-0.1877,-0.1935,-0.1923,-0.193,-0.2013,-0.1951,-0.1955,-0.1958,-0.196,-0.2167,-0.2169,0,0,0,0,0,0,-0.1909,-0.1888,-0.1953,-0.1952,-0.191,-0.1895,-0.1893,-0.191,-0.1909,-0.1909,-0.1879,-0.1873,-0.1916,-0.1924,-0.1933,-0.1964,-0.1956,-0.1961,-0.1964,-0.2165,-0.2168,-0.217,0,0,0,0,0,0,-0.1907,-0.1916,-0.1954,-0.1924,-0.1927,-0.19,-0.1918,-0.191,-0.1894,-0.1915,-0.1915,-0.1872,-0.1915,-0.1926,-0.1983,-0.1968,-0.1963,-0.1967,-0.2162,-0.2165,-0.2169,-0.206,0,0,0,0,0,0,-0.1905,-0.1915,-0.1926,-0.1927,-0.193,-0.1956,-0.1921,-0.1911,-0.1908,-0.19,-0.1911,-0.1915,-0.1914,-0.1976,-0.1988,-0.1975,-0.1971,-0.2158,-0.2163,-0.2168,-0.2061,-0.206,-0.2059,0,0,0,0,0,-0.1902,-0.1924,-0.1927,-0.1934,-0.195,-0.1957,-0.1953,-0.1921,-0.191,-0.19,-0.192,-0.1914,-0.2014,-0.1982,-0.1995,-0.1983,-0.2156,-0.2162,-0.2167,-0.2061,-0.206,-0.2059,0,0,0,0,0,0,-0.1879,-0.1918,-0.192,-0.195,-0.1953,-0.1944,-0.1942,-0.1933,-0.1937,-0.1939,-0.1947,-0.1954,-0.1993,-0.2037,-0.2,-0.2069,-0.2086,-0.2095,-0.2001,-0.2001,-0.2,-0.2013,-0.1975,0,0,0,0,0,-0.189,-0.1916,-0.1938,-0.1957,-0.1968,-0.196,-0.196,-0.1947,-0.1959,-0.1954,-0.197,-0.2007,-0.2033,-0.2052,-0.2091,-0.214,-0.2153,-0.2151,-0.215,-0.2148,-0.2177,-0.2176,-0.2174,-0.2189,-0.2189,-0.2189,0,0,-0.1885,-0.1912,-0.1924,-0.1955,-0.1956,-0.1974,-0.1952,-0.1961,-0.1968,-0.1974,-0.1996,-0.2008,-0.2051,-0.2077,-0.2101,-0.2106,-0.2148,-0.2155,-0.2152,-0.2183,-0.2181,-0.2179,-0.2176,-0.2193,-0.2192,-0.2192,0,0,-0.1889,-0.1919,-0.1939,-0.1954,-0.1977,-0.1982,-0.1992,-0.2001,-0.1991,-0.2032,-0.2022,-0.2032,-0.2103,-0.2092,-0.2107,-0.2149,-0.2144,-0.2171,-0.2167,-0.2163,-0.216,-0.2158,-0.2132,-0.2128,-0.2167,-0.2167,-0.2167,0,-0.1879,-0.1914,-0.1941,-0.1966,-0.1979,-0.1993,-0.2009,-0.2017,-0.2038,-0.2043,-0.2041,-0.2094,-0.2105,-0.2116,-0.2112,-0.2137,-0.2139,-0.2141,-0.2153,-0.2152,-0.2151,-0.2126,-0.2123,-0.2162,-0.2163,-0.2163,-0.2164,0,-0.1898,-0.1925,-0.1941,-0.1983,-0.2,-0.2017,-0.2047,-0.2061,-0.2071,-0.2074,-0.2095,-0.2102,-0.2126,-0.2119,-0.2125,-0.2126,-0.2126,-0.2138,-0.2129,-0.2141,-0.2116,-0.2115,-0.2156,-0.2158,-0.2159,-0.216,0,0,-0.1868,-0.194,-0.194,-0.1959,-0.201,-0.2023,-0.2059,-0.2081,-0.2093,-0.2112,-0.2115,-0.2128,-0.2119,-0.214,-0.2126,-0.2121,-0.2075,-0.2128,-0.213,-0.2059,-0.2052,-0.1978,-0.1969,-0.2076,-0.2077,-0.2077,-0.2019,0,-0.1864,-0.1909,-0.1947,-0.1979,-0.2003,-0.2039,-0.2067,-0.2093,-0.2112,-0.2127,-0.2126,-0.2136,-0.2131,-0.2119,-0.2112,-0.2098,-0.2077,-0.209,-0.2096,-0.2096,-0.199,-0.1967,-0.1832,-0.1764,-0.2018,-0.2017,-0.2017,0,-0.1858,-0.1891,-0.1924,-0.1978,-0.199,-0.2013,-0.2051,-0.2078,-0.2112,-0.2126,-0.2137,-0.2145,-0.2136,-0.2132,-0.211,-0.2118,-0.209,-0.2074,-0.2071,-0.205,-0.202,-0.1811,-0.1753,-0.2016,-0.2016,-0.2016,-0.2016,0,-0.1808,-0.1867,-0.189,-0.191,-0.1979,-0.1992,-0.2022,-0.2066,-0.2084,-0.2118,-0.2128,-0.2139,-0.2127,-0.2122,-0.2092,-0.21,-0.2064,-0.2065,-0.197,-0.1963,-0.188,-0.1865,-0.2051,-0.2051,-0.2051,-0.2051,-0.2052,0,-0.1786,-0.18,-0.1867,-0.188,-0.1896,-0.1958,-0.1975,-0.201,-0.2056,-0.2072,-0.2112,-0.2116,-0.2128,-0.211,-0.2092,-0.202,-0.2058,-0.197,-0.1946,-0.1837,-0.1821,-0.2087,-0.2092,-0.2049,-0.205,-0.205,-0.2051,0,-0.1721,-0.1774,-0.1796,-0.1859,-0.1873,-0.188,-0.1939,-0.1958,-0.201,-0.203,-0.204,-0.2086,-0.206,-0.2053,-0.2026,-0.1993,-0.195,-0.1912,-0.1772,-0.1733,-0.1849,-0.1851,-0.18,-0.1796,-0.1794,-0.1792,-0.179,0,-0.1691,-0.1698,-0.1752,-0.1764,-0.1788,-0.1815,-0.1838,-0.1913,-0.194,-0.2005,-0.2008,-0.2006,-0.1972,-0.1905,-0.1853,-0.1783,-0.1859,-0.1627,-0.1623,-0.1843,-0.1825,-0.1831,-0.1835,-0.1454,-0.145,-0.1446,-0.1444,0,-0.1617,-0.1635,-0.1655,-0.1677,-0.1701,-0.1722,-0.1763,-0.1777,-0.1864,-0.188,-0.1886,-0.1864,-0.1812,-0.168,-0.1606,-0.156,-0.1632,-0.155,-0.181,-0.1545,-0.1515,-0.1499,-0.1515,-0.1411,-0.1415,-0.1417,-0.1419,-0.142,-0.1542,-0.1534,-0.1561,-0.1568,-0.1597,-0.1601,-0.1577,-0.1638,-0.1641,-0.1641,-0.171,-0.1632,-0.1625,-0.1428,-0.1347,-0.1288,-0.1406,-0.1353,-0.1366,-0.1382,-0.1358,-0.1326,-0.1181,-0.1183,-0.1184,-0.1186,-0.1187,0,-0.1441,-0.1446,-0.1453,-0.1457,-0.1437,-0.1487,-0.1504,-0.1463,-0.1423,-0.1454,-0.1424,-0.1271,-0.118,-0.1173,-0.1028,-0.0999,-0.1001,-0.0958,-0.097,-0.1002,-0.1031,-0.0991,-0.0715,-0.0714,-0.0712,-0.0711,0,0,-0.1392,-0.1359,-0.1361,-0.1283,-0.1284,-0.121,-0.1186,-0.115,-0.1139,-0.1065,-0.1033,-0.1117,-0.1141,-0.0937,-0.0884,-0.0772,-0.0877,-0.0728,-0.1108,-0.1154,-0.1181,-0.126,-0.1235,0,0,0,0,0]},{"header":{"parameterUnit":"m.s-1","parameterCategory":2,"la1":30.2991,"la2":30.254,"lo1":-89.0895,"lo2":-89.0444,"dy":0.0017,"dx":0.0017,"nx":28,"ny":28,"refTime":"2023-08-28T03:00:00:Z","depth":"2","parameterNumber":3,"parameterNumberName":"V-component_of_CURRENTS"},"data":[0,0,0,0,0,0,0,0,0,0,0,0,0,0,0,0,0,0,0,0,0,0,0,0,0,0,0,0,0,0,0,0,0,0,0,0,0,0,0,0,0,0,0,0,0,0,0,0,0,0,0,0,0,0,0,0,0,0,-0.0226,-0.0225,0,-0.0177,-0.0177,-0.0177,-0.0144,-0.0143,-0.0143,-0.0142,0.0045,0.0049,0.0054,0,0,0,0,0,0,0,0,0,0,0,0,0,-0.0239,-0.0239,-0.0226,-0.0225,-0.0224,-0.0177,-0.0177,-0.0176,-0.0144,-0.0143,-0.0143,-0.0142,0.0043,0.0049,0.0054,0,0,0,0,0,0,0,0,0,0,0,0,0,-0.0219,-0.0239,-0.0226,-0.02,-0.0197,-0.0177,-0.0177,-0.0176,-0.0144,-0.0143,-0.0142,-0.0142,0.0042,0.0048,0.0055,0.0083,0,0,0.0076,0.0079,0,0,0,0,0,0,0,0,-0.022,-0.0219,-0.0205,-0.0202,-0.0199,-0.0163,-0.0112,-0.0082,-0.0144,-0.0167,-0.0142,-0.0141,-0.0011,0.0,0.0002,0.0091,0.0099,0.0076,0.0081,0.0083,0.0085,0,0,0,0,0,0,0,-0.0221,-0.022,-0.0209,-0.0204,-0.02,-0.0173,-0.017,-0.0107,-0.0093,-0.0165,-0.0162,-0.0152,-0.0008,-0.0005,0.0007,0.0102,0.0076,0.0082,0.0086,0.0089,0.0313,0.0314,0,0,0,0,0,0,-0.0226,-0.0222,-0.0211,-0.0208,-0.0205,-0.0173,-0.017,-0.0178,-0.0097,-0.0084,-0.0153,-0.0151,-0.0017,-0.0001,0.0014,0.0047,0.0083,0.009,0.0094,0.0311,0.0313,0.0315,0,0,0,0,0,0,-0.0226,-0.0226,-0.0213,-0.021,-0.0206,-0.0174,-0.0182,-0.0177,-0.0169,-0.0089,-0.0074,-0.0149,-0.0015,0.0005,0.0067,0.0056,0.0093,0.0099,0.0309,0.0311,0.0314,0.0118,0,0,0,0,0,0,-0.0227,-0.0227,-0.0233,-0.0211,-0.0207,-0.0208,-0.0183,-0.0177,-0.0163,-0.016,-0.008,-0.0063,-0.0013,0.0056,0.0074,0.0066,0.0104,0.0306,0.031,0.0313,0.0122,0.0114,0.0106,0,0,0,0,0,-0.0228,-0.0249,-0.0234,-0.0232,-0.0217,-0.0208,-0.0204,-0.0179,-0.0163,-0.0168,-0.0112,-0.0065,0.0093,0.0062,0.0082,0.0076,0.0305,0.0309,0.0313,0.0125,0.0115,0.0107,0,0,0,0,0,0,-0.0261,-0.0247,-0.023,-0.0246,-0.0227,-0.0202,-0.0203,-0.0182,-0.0146,-0.0136,-0.0062,-0.0041,0.0013,0.009,0.0055,0.0164,0.0216,0.0224,0.0067,0.0058,0.0051,0.0053,0.011,0,0,0,0,0,-0.027,-0.0279,-0.0255,-0.0265,-0.026,-0.0229,-0.0221,-0.0204,-0.0168,-0.0153,-0.0097,-0.0016,0.0046,0.0085,0.0156,0.0203,0.0265,0.0229,0.0221,0.0213,0.0238,0.0289,0.0285,0.0329,0.0329,0.0329,0,0,-0.0283,-0.0275,-0.0279,-0.0271,-0.0256,-0.0253,-0.0224,-0.0218,-0.0207,-0.0133,-0.0102,-0.0049,0.0056,0.0098,0.0134,0.0158,0.0231,0.0219,0.0209,0.024,0.0293,0.0288,0.0283,0.0332,0.0331,0.0331,0,0,-0.0317,-0.031,-0.0327,-0.0314,-0.0293,-0.0274,-0.0272,-0.0247,-0.0228,-0.0192,-0.0137,-0.0094,0.0013,0.006,0.0106,0.0114,0.0184,0.0153,0.0108,0.0154,0.0149,0.0146,0.0181,0.0183,0.015,0.015,0.015,0,-0.0331,-0.0349,-0.0329,-0.0337,-0.0327,-0.0285,-0.0294,-0.027,-0.0225,-0.0205,-0.019,-0.0062,-0.0004,0.0054,0.0046,0.0088,0.013,0.0108,0.0135,0.0133,0.0133,0.0171,0.0175,0.0141,0.0142,0.0143,0.0144,0,-0.0373,-0.038,-0.0391,-0.0383,-0.0372,-0.0374,-0.0335,-0.0318,-0.0287,-0.0256,-0.0199,-0.0136,-0.0054,-0.0039,-0.0002,0.0034,0.0067,0.01,0.0131,0.0115,0.0159,0.0166,0.0128,0.0131,0.0134,0.0136,0,0,-0.0422,-0.0422,-0.0423,-0.0425,-0.0396,-0.0394,-0.0372,-0.0342,-0.0325,-0.0278,-0.0252,-0.018,-0.0148,-0.0088,-0.0044,-0.0012,-0.0021,0.0032,0.0039,0.002,0.0074,0.0105,0.0117,0.0001,0.0002,0.0003,0.0088,0,-0.0458,-0.049,-0.0472,-0.0485,-0.0496,-0.0449,-0.0433,-0.0394,-0.0352,-0.0317,-0.0247,-0.02,-0.0162,-0.0146,-0.011,-0.003,-0.0001,-0.0046,0.014,0.0146,0.0134,0.0127,0.0113,0.019,0.0096,0.0098,0.0099,0,-0.0501,-0.0517,-0.0547,-0.0538,-0.0537,-0.0532,-0.0497,-0.0477,-0.0408,-0.0375,-0.0315,-0.0253,-0.0192,-0.0165,-0.0039,-0.0071,-0.0005,0.005,0.0055,0.017,0.0192,0.0208,0.0209,0.0112,0.0111,0.011,0.0109,0,-0.055,-0.0564,-0.0591,-0.0588,-0.0573,-0.057,-0.0555,-0.0499,-0.048,-0.0412,-0.0389,-0.0292,-0.0248,-0.0145,-0.0026,-0.0035,0.0113,0.0118,0.0213,0.0216,0.0292,0.03,0.0211,0.0211,0.021,0.021,0.021,0,-0.0596,-0.0614,-0.0618,-0.0632,-0.0656,-0.0622,-0.0625,-0.0592,-0.0541,-0.0517,-0.0426,-0.0377,-0.0242,-0.0136,-0.0032,0.0121,0.0116,0.0219,0.0247,0.0224,0.0224,0.0245,0.0248,0.0213,0.0213,0.0212,0.0211,0,-0.064,-0.0645,-0.0675,-0.0678,-0.0682,-0.0697,-0.0682,-0.0677,-0.0622,-0.0586,-0.0567,-0.0441,-0.0299,-0.0152,0.0018,0.0113,0.0253,0.0308,0.0267,0.0289,0.0321,0.0314,0.0418,0.042,0.0422,0.0423,0.0424,0,-0.0666,-0.069,-0.0719,-0.0744,-0.0748,-0.0763,-0.0772,-0.0727,-0.0712,-0.0613,-0.0596,-0.0456,-0.0334,-0.0069,0.0116,0.0315,0.0308,0.041,0.0397,0.033,0.0346,0.0336,0.0326,0.0408,0.0409,0.041,0.041,0,-0.071,-0.072,-0.0747,-0.0804,-0.0829,-0.085,-0.0851,-0.0849,-0.0783,-0.0721,-0.0607,-0.0501,-0.0248,-0.0017,0.023,0.034,0.0376,0.0432,0.0392,0.0355,0.0327,0.034,0.033,0.0417,0.0416,0.0416,0.0415,0.0415,-0.0734,-0.0768,-0.0809,-0.0858,-0.0892,-0.0918,-0.0921,-0.089,-0.0843,-0.072,-0.0621,-0.0422,-0.0219,0.0152,0.032,0.0467,0.0459,0.05,0.0494,0.0489,0.047,0.0447,0.0555,0.0555,0.0555,0.0555,0.0555,0,-0.0764,-0.0805,-0.086,-0.0913,-0.0952,-0.0957,-0.0957,-0.0923,-0.0845,-0.0701,-0.0552,-0.0298,-0.0037,0.0166,0.0414,0.0557,0.053,0.0569,0.0511,0.0504,0.0498,0.0477,0.0565,0.0565,0.0566,0.0566,0,0,-0.0783,-0.0842,-0.0873,-0.0946,-0.0981,-0.1,-0.0991,-0.0911,-0.0797,-0.0627,-0.046,-0.0256,-0.0009,0.0171,0.0344,0.0467,0.0443,0.0469,0.0449,0.0354,0.0346,0.0449,0.0408,0,0,0,0,0]}],[{"header":{"parameterUnit":"m.s-1","parameterCategory":2,"la1":30.2991,"la2":30.254,"lo1":-89.0895,"lo2":-89.0444,"dy":0.0017,"dx":0.0017,"nx":28,"ny":28,"refTime":"2023-08-28T03:00:00:Z","depth":"4","parameterNumber":2,"parameterNumberName":"U-component_of_CURRENTS"},"data":[0,0,0,0,0,0,0,0,0,0,0,0,0,0,0,0,0,0,0,0,0,0,0,0,0,0,0,0,0,0,0,0,0,0,0,0,0,0,0,0,0,0,0,0,0,0,0,0,0,0,0,0,0,0,0,0,0,0,-0.1398,-0.1398,0,-0.136,-0.1359,-0.1359,-0.1328,-0.1328,-0.1328,-0.1328,-0.1357,-0.1358,-0.1359,0,0,0,0,0,0,0,0,0,0,0,0,0,-0.1342,-0.1344,-0.1398,-0.1398,-0.1397,-0.136,-0.1359,-0.1359,-0.1328,-0.1328,-0.1328,-0.1328,-0.1357,-0.1358,-0.1359,0,0,0,0,0,0,0,0,0,0,0,0,0,-0.134,-0.1344,-0.1398,-0.138,-0.1378,-0.136,-0.1359,-0.1358,-0.1328,-0.1328,-0.1328,-0.1328,-0.1356,-0.1358,-0.1359,-0.1369,0,0,-0.1363,-0.1363,0,0,0,0,0,0,0,0,-0.134,-0.1341,-0.1383,-0.1381,-0.1379,-0.1351,-0.1351,-0.1366,-0.1328,-0.1344,-0.1328,-0.1328,-0.1363,-0.1364,-0.1352,-0.137,-0.1371,-0.1363,-0.1364,-0.1364,-0.1364,0,0,0,0,0,0,0,-0.134,-0.1342,-0.138,-0.1382,-0.138,-0.1339,-0.1339,-0.1352,-0.1354,-0.1343,-0.1341,-0.1341,-0.1362,-0.1351,-0.1353,-0.1372,-0.1363,-0.1364,-0.1365,-0.1365,-0.1427,-0.1428,0,0,0,0,0,0,-0.1356,-0.1343,-0.1381,-0.1379,-0.1362,-0.1341,-0.134,-0.1358,-0.1352,-0.1351,-0.1341,-0.134,-0.1349,-0.1351,-0.1354,-0.1401,-0.1364,-0.1365,-0.1366,-0.1426,-0.1427,-0.1428,0,0,0,0,0,0,-0.1355,-0.1361,-0.1383,-0.1361,-0.1361,-0.1343,-0.1362,-0.1357,-0.1363,-0.1351,-0.1351,-0.1354,-0.1349,-0.1352,-0.1377,-0.1401,-0.1366,-0.1367,-0.1425,-0.1426,-0.1428,-0.1474,0,0,0,0,0,0,-0.1354,-0.1361,-0.1384,-0.1363,-0.1363,-0.138,-0.1362,-0.1357,-0.1364,-0.1362,-0.1362,-0.1363,-0.1349,-0.1375,-0.1378,-0.1402,-0.1368,-0.1424,-0.1426,-0.1427,-0.1471,-0.1477,-0.1481,0,0,0,0,0,-0.1353,-0.1376,-0.1386,-0.139,-0.1395,-0.138,-0.1376,-0.1359,-0.1365,-0.1365,-0.137,-0.1364,-0.1388,-0.1377,-0.1381,-0.1405,-0.1423,-0.1425,-0.1427,-0.1469,-0.1476,-0.1481,0,0,0,0,0,0,-0.1354,-0.1375,-0.1385,-0.1413,-0.1405,-0.1376,-0.1382,-0.1376,-0.1378,-0.1389,-0.1378,-0.1379,-0.1404,-0.1403,-0.1391,-0.1427,-0.1404,-0.1407,-0.1435,-0.1441,-0.1446,-0.1467,-0.1369,0,0,0,0,0,-0.1371,-0.1402,-0.1401,-0.1423,-0.1428,-0.1414,-0.1411,-0.1402,-0.1398,-0.1399,-0.1401,-0.1408,-0.1412,-0.1426,-0.1424,-0.1456,-0.1451,-0.1472,-0.1477,-0.1482,-0.1501,-0.1516,-0.1524,-0.1435,-0.1435,-0.1435,0,0,-0.1375,-0.1393,-0.1409,-0.1426,-0.1425,-0.1436,-0.1411,-0.1416,-0.143,-0.1406,-0.1436,-0.1425,-0.1421,-0.1441,-0.1454,-0.1449,-0.15,-0.1484,-0.1488,-0.1505,-0.1519,-0.1528,-0.1536,-0.1436,-0.1436,-0.1436,0,0,-0.1386,-0.1422,-0.1446,-0.1453,-0.1464,-0.146,-0.1471,-0.1463,-0.1467,-0.1487,-0.1471,-0.1482,-0.1494,-0.1491,-0.1492,-0.1531,-0.1518,-0.1531,-0.1586,-0.16,-0.1608,-0.1615,-0.1599,-0.1604,-0.1544,-0.1544,-0.1544,0,-0.1392,-0.1427,-0.1444,-0.1467,-0.1479,-0.1481,-0.1498,-0.1505,-0.1505,-0.1518,-0.1507,-0.1526,-0.1518,-0.1547,-0.1553,-0.1545,-0.1542,-0.1562,-0.1608,-0.1614,-0.1621,-0.1603,-0.1608,-0.1546,-0.1546,-0.1546,-0.1545,0,-0.1408,-0.1448,-0.1462,-0.1505,-0.152,-0.1533,-0.1552,-0.1573,-0.1585,-0.1586,-0.1616,-0.1602,-0.1612,-0.1609,-0.1595,-0.1638,-0.1616,-0.1603,-0.1593,-0.1633,-0.1611,-0.1615,-0.155,-0.1549,-0.1548,-0.1547,0,0,-0.1386,-0.1461,-0.1468,-0.1496,-0.1543,-0.1549,-0.16,-0.1628,-0.1658,-0.1671,-0.1701,-0.1709,-0.1702,-0.1704,-0.1688,-0.1709,-0.1732,-0.1685,-0.1685,-0.1671,-0.1749,-0.1615,-0.1606,-0.1733,-0.1735,-0.1736,-0.1709,0,-0.1389,-0.1441,-0.1482,-0.153,-0.1556,-0.1596,-0.1638,-0.1673,-0.1696,-0.1726,-0.1739,-0.1753,-0.1739,-0.1739,-0.1763,-0.1735,-0.1751,-0.174,-0.1713,-0.1712,-0.1589,-0.1609,-0.1741,-0.1712,-0.1713,-0.1714,-0.1714,0,-0.1381,-0.1422,-0.1474,-0.1549,-0.1565,-0.1602,-0.1668,-0.1702,-0.1759,-0.1777,-0.1814,-0.1813,-0.1844,-0.182,-0.1832,-0.1827,-0.1802,-0.1784,-0.1782,-0.1649,-0.1586,-0.167,-0.1722,-0.1721,-0.1721,-0.172,-0.172,0,-0.1334,-0.1412,-0.1457,-0.1482,-0.1568,-0.1607,-0.1651,-0.1717,-0.1745,-0.1808,-0.1824,-0.187,-0.1869,-0.188,-0.184,-0.1844,-0.1837,-0.1827,-0.1685,-0.1674,-0.1784,-0.1777,-0.1844,-0.1844,-0.1844,-0.1844,-0.1844,0,-0.1307,-0.1344,-0.1444,-0.1466,-0.1517,-0.1588,-0.1642,-0.1692,-0.176,-0.1785,-0.1842,-0.1852,-0.1888,-0.1879,-0.186,-0.1772,-0.1849,-0.1698,-0.1664,-0.1799,-0.1795,-0.1785,-0.1779,-0.1843,-0.1843,-0.1844,-0.1844,0,-0.1241,-0.1312,-0.1364,-0.1465,-0.1497,-0.153,-0.1625,-0.1659,-0.1731,-0.1765,-0.1785,-0.184,-0.1821,-0.1827,-0.1816,-0.1758,-0.1712,-0.1662,-0.179,-0.1763,-0.1537,-0.1534,-0.1509,-0.1504,-0.15,-0.1496,-0.1493,0,-0.1209,-0.1233,-0.1341,-0.1375,-0.1425,-0.149,-0.1534,-0.1629,-0.1659,-0.1737,-0.1739,-0.1753,-0.1768,-0.1636,-0.1671,-0.1614,-0.1594,-0.1563,-0.1575,-0.1536,-0.1507,-0.1509,-0.1511,-0.1487,-0.1486,-0.1485,-0.1483,0,-0.1139,-0.1191,-0.1236,-0.13,-0.1359,-0.1405,-0.1473,-0.1481,-0.1577,-0.1663,-0.163,-0.1604,-0.1569,-0.1544,-0.1495,-0.1467,-0.1586,-0.152,-0.1529,-0.1539,-0.1509,-0.1485,-0.1491,-0.1469,-0.1471,-0.1473,-0.1473,0,-0.1084,-0.1097,-0.1163,-0.1206,-0.1275,-0.1291,-0.1341,-0.1369,-0.1402,-0.1497,-0.1484,-0.1499,-0.1551,-0.1466,-0.1436,-0.1379,-0.1363,-0.1326,-0.1345,-0.1361,-0.1325,-0.1265,-0.1124,0,0,0,0,0,-0.1018,-0.1025,-0.1062,-0.1105,-0.1168,-0.1196,-0.1288,-0.1344,-0.144,-0.1375,-0.142,-0.1382,-0.1319,-0.1339,-0.1244,-0.137,-0.1371,-0.1258,-0.1342,-0.139,-0.1407,-0.1376,0,0,0,0,0,0,-0.0979,-0.1011,-0.1023,-0.1001,-0.1008,-0.1056,-0.1103,-0.1175,-0.1145,-0.1247,-0.1215,-0.1292,-0.1247,-0.1333,-0.121,-0.1214,-0.1237,-0.1281,-0.1277,-0.1381,-0.1396,-0.1409,-0.1384,0,0,0,0,0]},{"header":{"parameterUnit":"m.s-1","parameterCategory":2,"la1":30.2991,"la2":30.254,"lo1":-89.0895,"lo2":-89.0444,"dy":0.0017,"dx":0.0017,"nx":28,"ny":28,"refTime":"2023-08-28T03:00:00:Z","depth":"4","parameterNumber":3,"parameterNumberName":"V-component_of_CURRENTS"},"data":[0,0,0,0,0,0,0,0,0,0,0,0,0,0,0,0,0,0,0,0,0,0,0,0,0,0,0,0,0,0,0,0,0,0,0,0,0,0,0,0,0,0,0,0,0,0,0,0,0,0,0,0,0,0,0,0,0,0,-0.0197,-0.0197,0,-0.019,-0.019,-0.019,-0.0171,-0.017,-0.0169,-0.0169,-0.011,-0.0109,-0.0108,0,0,0,0,0,0,0,0,0,0,0,0,0,-0.0183,-0.0183,-0.0197,-0.0197,-0.0197,-0.019,-0.019,-0.019,-0.0171,-0.017,-0.0169,-0.0169,-0.0111,-0.0109,-0.0108,0,0,0,0,0,0,0,0,0,0,0,0,0,-0.0185,-0.0183,-0.0197,-0.0185,-0.0184,-0.019,-0.019,-0.019,-0.0171,-0.017,-0.0169,-0.0168,-0.0111,-0.011,-0.0108,-0.0115,0,0,-0.0103,-0.0103,0,0,0,0,0,0,0,0,-0.0185,-0.0186,-0.0187,-0.0186,-0.0184,-0.0179,-0.0164,-0.0162,-0.0171,-0.0177,-0.0169,-0.0168,-0.0128,-0.0125,-0.0129,-0.0112,-0.011,-0.0103,-0.0102,-0.0101,-0.0101,0,0,0,0,0,0,0,-0.0185,-0.0186,-0.0196,-0.0187,-0.0185,-0.0176,-0.0176,-0.0164,-0.0158,-0.0177,-0.0175,-0.0172,-0.0127,-0.013,-0.0127,-0.0109,-0.0103,-0.0102,-0.0101,-0.01,-0.0089,-0.009,0,0,0,0,0,0,-0.0184,-0.0186,-0.0196,-0.0195,-0.0181,-0.0177,-0.0177,-0.0183,-0.0159,-0.0154,-0.0173,-0.0171,-0.0133,-0.0129,-0.0125,-0.0122,-0.0102,-0.01,-0.0099,-0.0089,-0.0089,-0.009,0,0,0,0,0,0,-0.0184,-0.0186,-0.0196,-0.0189,-0.0189,-0.0178,-0.0185,-0.0183,-0.0182,-0.0156,-0.0151,-0.0173,-0.0132,-0.0127,-0.0118,-0.012,-0.0099,-0.0098,-0.0088,-0.0089,-0.009,-0.0123,0,0,0,0,0,0,-0.0184,-0.0186,-0.0192,-0.0189,-0.019,-0.0205,-0.0186,-0.0184,-0.0181,-0.0179,-0.0155,-0.0149,-0.0131,-0.0121,-0.0117,-0.0117,-0.0097,-0.0087,-0.0088,-0.0089,-0.0121,-0.0125,-0.0128,0,0,0,0,0,-0.0184,-0.0202,-0.0193,-0.0194,-0.0198,-0.0206,-0.0206,-0.0195,-0.0182,-0.019,-0.0173,-0.015,-0.0125,-0.012,-0.0115,-0.0115,-0.0086,-0.0088,-0.0089,-0.012,-0.0124,-0.0128,0,0,0,0,0,0,-0.0202,-0.0201,-0.0191,-0.0208,-0.0206,-0.0202,-0.0209,-0.0198,-0.0192,-0.0187,-0.0159,-0.0153,-0.015,-0.013,-0.0126,-0.0117,-0.0102,-0.0102,-0.0126,-0.013,-0.0134,-0.0116,-0.0095,0,0,0,0,0,-0.0208,-0.0219,-0.0213,-0.0226,-0.0226,-0.0216,-0.0217,-0.021,-0.0202,-0.0199,-0.0182,-0.0164,-0.0154,-0.014,-0.0134,-0.0125,-0.0085,-0.0122,-0.0126,-0.0129,-0.0112,-0.0052,-0.0048,-0.0095,-0.0095,-0.0095,0,0,-0.0218,-0.0218,-0.0224,-0.023,-0.0227,-0.0232,-0.0216,-0.0222,-0.0219,-0.0193,-0.0189,-0.0181,-0.0158,-0.0155,-0.015,-0.0135,-0.0101,-0.0131,-0.0133,-0.0114,-0.0053,-0.0048,-0.0044,-0.0096,-0.0096,-0.0096,0,0,-0.0245,-0.0245,-0.0261,-0.0259,-0.0256,-0.0249,-0.025,-0.0247,-0.0238,-0.0238,-0.0219,-0.0205,-0.0196,-0.0172,-0.0159,-0.0175,-0.0131,-0.0183,-0.0173,-0.0116,-0.0111,-0.0106,-0.0072,-0.0064,-0.0174,-0.0174,-0.0174,0,-0.0256,-0.0274,-0.0267,-0.0277,-0.0276,-0.0256,-0.0268,-0.0258,-0.0251,-0.0239,-0.0241,-0.021,-0.0198,-0.0166,-0.0179,-0.018,-0.0149,-0.0158,-0.0118,-0.0112,-0.0106,-0.0073,-0.0063,-0.0176,-0.0175,-0.0175,-0.0175,0,-0.029,-0.03,-0.0311,-0.0312,-0.0311,-0.032,-0.0301,-0.0296,-0.0284,-0.0267,-0.0246,-0.0228,-0.0201,-0.0203,-0.0197,-0.0154,-0.0149,-0.0138,-0.0103,-0.0103,-0.0069,-0.0058,-0.0178,-0.0177,-0.0177,-0.0177,0,0,-0.0324,-0.0333,-0.0336,-0.0339,-0.0329,-0.0334,-0.0323,-0.0306,-0.0292,-0.0273,-0.0249,-0.0231,-0.021,-0.0193,-0.0177,-0.0127,-0.008,-0.0118,-0.0114,-0.0077,0.0033,0.0018,0.0029,-0.0059,-0.0057,-0.0055,0.0033,0,-0.0351,-0.0381,-0.0372,-0.0389,-0.04,-0.0372,-0.0364,-0.034,-0.0316,-0.029,-0.024,-0.0223,-0.0207,-0.0202,-0.0146,-0.0104,-0.0049,-0.0105,0.0023,0.0026,0.0021,0.0042,-0.0048,0.0041,0.0044,0.0046,0.0047,0,-0.0383,-0.0399,-0.0428,-0.0425,-0.0427,-0.0431,-0.0405,-0.0395,-0.034,-0.032,-0.0267,-0.0233,-0.0168,-0.0159,-0.0038,-0.0076,-0.0019,0.0025,0.0029,0.0043,0.0033,0.0048,0.0068,0.0066,0.0064,0.0063,0.0062,0,-0.0413,-0.0432,-0.0458,-0.0459,-0.0456,-0.0457,-0.0451,-0.0408,-0.0395,-0.0336,-0.0317,-0.0226,-0.0195,-0.0094,-0.0009,-0.0021,0.0126,0.0123,0.0173,0.0171,0.0174,0.0168,0.0231,0.0231,0.0231,0.0231,0.0231,0,-0.0441,-0.046,-0.0479,-0.0493,-0.0517,-0.0496,-0.0501,-0.0477,-0.0435,-0.0412,-0.0338,-0.0293,-0.0176,-0.0083,0.0003,0.012,0.0144,0.0189,0.0205,0.0151,0.0142,0.018,0.0173,0.0234,0.0233,0.0233,0.0232,0,-0.0465,-0.0479,-0.0511,-0.0526,-0.0536,-0.0552,-0.055,-0.0544,-0.05,-0.0465,-0.0449,-0.034,-0.022,-0.0096,0.0058,0.0122,0.024,0.0279,0.0204,0.0211,0.0242,0.0232,0.0345,0.0346,0.0346,0.0347,0.0347,0,-0.0478,-0.0501,-0.0545,-0.0573,-0.0586,-0.0608,-0.062,-0.0587,-0.057,-0.0487,-0.0466,-0.035,-0.0267,-0.0048,0.0071,0.0248,0.0269,0.0321,0.0297,0.0256,0.026,0.0249,0.0238,0.0347,0.0348,0.0348,0.0348,0,-0.0501,-0.0523,-0.0551,-0.0615,-0.0647,-0.067,-0.0677,-0.0667,-0.0612,-0.0576,-0.0458,-0.0337,-0.0201,-0.0042,0.0091,0.0218,0.0282,0.0326,0.0326,0.0303,0.026,0.0261,0.025,0.0349,0.0349,0.0349,0.0349,0,-0.0516,-0.0547,-0.0595,-0.0643,-0.0691,-0.0712,-0.0712,-0.067,-0.064,-0.0534,-0.0496,-0.0334,-0.0239,-0.0057,0.0072,0.0188,0.0212,0.024,0.0245,0.0245,0.0183,0.0111,0.0184,0,0,0,0,0,-0.0525,-0.0564,-0.0619,-0.067,-0.0717,-0.0739,-0.0739,-0.0722,-0.0667,-0.0585,-0.0532,-0.0394,-0.0186,-0.0091,0.0026,0.0054,0.0209,0.0191,0.0237,0.0357,0.0355,0.0298,0,0,0,0,0,0,-0.0534,-0.059,-0.0619,-0.068,-0.0717,-0.0757,-0.0757,-0.0722,-0.0657,-0.0586,-0.0468,-0.0384,-0.0181,-0.0254,0.0022,0.0057,0.0099,0.0296,0.0298,0.0358,0.0356,0.0355,0.0296,0,0,0,0,0]}]]